Regional Weather Roundup
Issued by NWS

Home | Current Version | Previous Version | Text Only | Print | Product List | Glossary Off
Versions: 1 2 3 4 5 6 7 8 9 10 11 12 13 14 15 16 17 18 19 20 21 22 23 24 25 26 27 28 29 30 31 32 33 34 35 36 37 38 39 40 41 42 43 44 45 46 47 48 49 50

000
ASUS43 KMKX 242021
RWRWI

WISCONSIN REGIONAL WEATHER ROUNDUP
NATIONAL WEATHER SERVICE MILWAUKEE/SULLIVAN WI
300 PM CDT MON APR 24 2017

NOTE: "FAIR" INDICATES FEW OR NO CLOUDS BELOW 12,000 FEET WITH NO
SIGNIFICANT WEATHER AND/OR OBSTRUCTIONS TO VISIBILITY.

WIZ001-002-006>008-014>016-023>028-242100-
NORTHWEST WISCONSIN

CITY           SKY/WX    TMP DP  RH WIND       PRES   REMARKS
SUPERIOR ARPT  CLOUDY    37  32  82 E20G33    29.77F WCI  27
ASHLAND        CLOUDY    45  33  63 NE14      29.79F
HAYWARD        CLOUDY    63  32  31 S16G28    29.72F
SIREN          PTSUNNY   69  30  23 S23G31    29.66F
CUMBERLAND     CLOUDY    64  32  29 S24       29.70F
RICE LAKE      CLOUDY    66  32  27 SE17G26   29.72F
CHETEK         CLOUDY    65  35  31 S15G29    29.73F
LADYSMITH      CLOUDY    65  34  31 SE15G24   29.77F
EAU CLAIRE     CLOUDY    67  31  26 S16       29.72F
MENOMONIE      CLOUDY    69  31  24 SE15G22   29.71F
NEW RICHMOND   CLOUDY    69  29  22 SE21G28   29.67F
OSCEOLA        CLOUDY    71  32  24 S24G32    29.68F
$$

WIZ003>005-009-010-017-018-242100-
NORTH CENTRAL WISCONSIN

CITY           SKY/WX    TMP DP  RH WIND       PRES   REMARKS
MANITOWISH WTR CLOUDY    62  33  33 S13G18    29.79F
ARBOR VITAE    CLOUDY    63  30  28 S16G23    29.79F
WOODRUFF       CLOUDY    63  30  28 S16G23    29.79F
RHINELANDER    CLOUDY    66  28  24 S17G30    29.82F
EAGLE RIVER    CLOUDY    64  25  22 S16G25    29.81F
LAND O LAKES   CLOUDY    62  28  26 S13G18    29.83F
PHILLIPS       PTSUNNY   64  33  31 S20G25    29.76F
TOMAHAWK       CLOUDY    64  31  28 S7        29.82S
MEDFORD        PTSUNNY   63  33  32 S17G26    29.79F
MERRILL        CLOUDY    64  33  30 S16G23    29.83F
$$

WIZ029-030-035-036-043>047-242100-
CENTRAL WISCONSIN

CITY           SKY/WX    TMP DP  RH WIND       PRES   REMARKS
WAUSAU         MOSUNNY   65  31  28 S21       29.81F
MOSINEE        PTSUNNY   64  32  29 S16G24    29.82F
MARSHFIELD     MOSUNNY   67  31  26 S21G26    29.79F
STEVENS POINT  CLOUDY    66  32  27 S16G25    29.83F
WAUPACA        CLOUDY    70  33  25 S12G21    29.85F
WAUTOMA        MOSUNNY   70  32  24 S15       29.84F
WISC RAPIDS    NOT AVBL
CAMP DOUGLAS   CLOUDY    70  34  26 SE15G25   29.79F
$$

WIZ011>013-019>022-031-037>040-048>050-242100-
NORTHEAST WISCONSIN

CITY           SKY/WX    TMP DP  RH WIND       PRES   REMARKS
ANTIGO         PTSUNNY   61  36  40 S17G24    29.86F
SHAWANO        CLOUDY    66  38  35 SE7       29.88F
OCONTO         PTSUNNY   53  39  60 E8        29.91F
STURGEON BAY   MOSUNNY   49  39  68 SE13      29.93F
GREEN BAY      CLOUDY    58  46  64 NE9       29.89F
MANITOWOC      PTSUNNY   52  39  61 SE10      29.93F
APPLETON       PTSUNNY   66  28  24 SE14G21   29.86F
CLINTONVILLE   CLOUDY    64  36  34 S10       29.86F
OSHKOSH        CLOUDY    70  33  25 S10G20    29.86F
$$

WIZ032>034-041-042-053>061-242100-
SOUTHWEST WISCONSIN

CITY           SKY/WX    TMP DP  RH WIND       PRES   REMARKS
LA CROSSE      MOSUNNY   73  31  21 S20G28    29.74F
SPARTA         MOSUNNY   71  30  21 S16G23    29.78F
VIROQUA        MOSUNNY   69  30  23 SE18G26   29.78F
BOSCOBEL       MOSUNNY   73  28  18 S13G20    29.80F
PRAIRIE DU CHI MOSUNNY   73  26  17 SE10G16   29.77F
PLATTEVILLE    SUNNY     71  32  23 SE15G21   29.82F
$$

WIZ056-057-062-063-064-067-068-242100-
SOUTH CENTRAL WISCONSIN

CITY           SKY/WX    TMP DP  RH WIND       PRES   REMARKS
REEDSBURG      SUNNY     71  30  22 S12G20    29.82F
BARABOO/DELLS  SUNNY     71  28  20 S18G25    29.82F
LONE ROCK      SUNNY     72  32  23 S20       29.81F
MINERAL POINT  SUNNY     72  27  18 S15G23    29.82F
MADISON        PTSUNNY   71  30  21 S16G28    29.83F
MIDDLETON      SUNNY     72  29  20 S12       29.84F
WATERTOWN      SUNNY     71  36  27 S12G18    29.86F
MONROE         MOSUNNY   70  30  23 SE20G25   29.84F
JANESVILLE     PTSUNNY   73  25  16 SE17G23   29.85F
$$

WIZ051-052-058>065-066-070>072-242100-
SOUTHEAST WISCONSIN

CITY           SKY/WX    TMP DP  RH WIND       PRES   REMARKS
MILWAUKEE      CLOUDY    65  34  31 SE14      29.91F
WAUKESHA       SUNNY     66  32  28 SE14G22   29.90F
MILWAUKEE/TIMM SUNNY     66  23  19 SE15      29.91F
RACINE         CLOUDY    64  32  30 SE9       29.93F
KENOSHA        CLOUDY    66  31  27 SE14      29.91F
FOND DU LAC    SUNNY     70  32  24 S17G23    29.86F
SHEBOYGAN      MOSUNNY   62  39  42 S13G21    29.91F
WEST BEND      SUNNY     66  34  30 SE12G21   29.89F
JUNEAU         SUNNY     70  34  26 SE15      29.87F
$$

LSZ147-162-242100-
LAKE SUPERIOR

STATION/POSITION TIME  TEMP    WIND        PRES    WAVE
                       AIR SEA DIR/SP/G            HT/PER
                 (UTC) (F)     (DEG/KT/KT) (MB)    (FT/S)
DEVILS ISLAND    2000   37      50/ 27/ 30 1009.7F
PORT WING        1755   39      30/ 23/ 26 1010.2
SAXON HARBOR     1930   39     350/  5/  7 1008.8F
$$

LMZ867-665-643>646-242100-
LAKE MICHIGAN

STATION/POSITION TIME  TEMP    WIND        PRES    WAVE
                       AIR SEA DIR/SP/G            HT/PER
                 (UTC) (F)     (DEG/KT/KT) (MB)    (FT/S)
CHAMBERS ISLAND  1940   46      60/  9/ 12 1013.5F
N MID LAKE BUOY  1950   39 37   70/ 10/ 12 1015.9F   1/ 4
NORTHPORT PIER   1940   40     100/ 11/ 13 1014.6F
SISTER BAY       1921   53      70/ 13/ 18   N/A
KEWAUNEE LAKESHO 1954   44     110/  8/ 10 1013.5F
SHEBOYGAN LAKESH 2000   43     160/  7/  8 1013.4F
PORT WASHINGTON  1940   47     130/  4/  5 1014.2F
MILWAUKEE LAKESH 2000   45      70/  3/  3   N/A
S MID LAKE BUOY  1950   47 43   30/  4/  4 1013.7F   1/ 3
KENOSHA   LAKESH 2000   48      70/  2/  2 1012.9
$$

TC  - TEMPERATURE IN CELSIUS
VSB - VISIBILITY IN STATUTE MILES
WCI - WIND CHILL INDEX
HX  - HEAT INDEX




USA.gov is the U.S. government's official web portal to all federal, state and local government web resources and services.